Change the Weather History Date:

Wednesday, November 20, 2013

  Actual Average Record
Temperature  
Mean Temperature 84 °F -  
Max Temperature 92 °F 90 °F - ()
Min Temperature 76 °F 73 °F - ()
Cooling Degree Days 19    
Growing Degree Days 34 (Base 50)    
Moisture  
Dew Point 74 °F    
Average Humidity 70    
Maximum Humidity 89    
Minimum Humidity 49    
Precipitation  
Precipitation 0.00 in 0.09 in - ()
Sea Level Pressure  
Sea Level Pressure 29.81 in    
Wind  
Wind Speed 4 mph ()    
Max Wind Speed 12 mph    
Max Gust Speed -    
Visibility 6.3 miles    
Events      
T = Trace of Precipitation, MM = Missing Value Source: Averaged Metar Reports

Daily Weather History Graph

Daily Weather History Graph

Search for Another Location

Airport or City:

Trip Planner

Search our weather history database for the weather conditions in past years. The results will help you decide how hot, cold, wet, or windy it might be!

Date:

Astronomy

Nov. 20, 2013 Rise Set
Actual Time 5:43 AM PHT 5:30 PM PHT
Civil Twilight 5:21 AM PHT 5:53 PM PHT
Nautical Twilight 4:56 AM PHT 6:18 PM PHT
Astronomical Twilight 4:30 AM PHT 6:44 PM PHT
Moon 7:44 PM PHT (11/20) 7:39 AM PHT (11/20)
Length of Visible Light 12h 31m
Length of Day
11h 47m
Waning Gibbous, 94% of the Moon is Illuminated
Nov 20
Waning Gibbous
Nov 26
Last Quarter
Dec 3
New
Dec 9
First Quarter
Dec 17
Full

Hourly Weather History & Observations

Time (PHT) Temp. Heat Index Dew Point Humidity Pressure Visibility Wind Dir Wind Speed Gust Speed Precip Events Conditions
2:00 AM 80 °F - 74 °F 76% 29.81 in 6 mi NE 4.5 mph - -   Haze
2:00 AM 78.8 °F - 73.4 °F 83% 29.83 in 6.2 mi NE 4.6 mph - N/A   Mostly Cloudy
5:00 AM 78 °F - 73 °F 81% 29.78 in 6 mi North 2.2 mph - -   Haze
5:00 AM 78.8 °F - 73.4 °F 83% 29.80 in 6.2 mi North 2.3 mph - N/A   Mostly Cloudy
6:00 AM 77.0 °F - 73.4 °F 89% 29.80 in 6.2 mi Calm Calm - N/A   Mostly Cloudy
7:00 AM 78.8 °F - 73.4 °F 83% 29.83 in 6.2 mi Calm Calm - N/A   Mostly Cloudy
8:00 AM 84 °F - 75 °F 67% 29.82 in 7 mi ENE 6.7 mph - -   Haze
8:00 AM 84.2 °F 92.3 °F 75.2 °F 74% 29.83 in 6.2 mi ENE 6.9 mph - N/A   Mostly Cloudy
9:00 AM 87.8 °F 97.6 °F 75.2 °F 66% 29.86 in 6.2 mi ENE 11.5 mph - N/A   Mostly Cloudy
10:00 AM 87.8 °F 97.6 °F 75.2 °F 66% 29.86 in 6.2 mi ENE 9.2 mph - N/A   Scattered Clouds
11:00 AM 89 °F - 74 °F 54% 29.80 in 7 mi ENE 6.7 mph - -   Haze
11:00 AM 89.6 °F 99.8 °F 75.2 °F 62% 29.83 in 6.2 mi ENE 6.9 mph - N/A   Partly Cloudy
12:00 PM 91.4 °F 102.5 °F 75.2 °F 59% 29.83 in 6.2 mi ENE 4.6 mph - N/A   Partly Cloudy
1:00 PM 91.4 °F 102.5 °F 75.2 °F 59% 29.80 in 6.2 mi East 6.9 mph - N/A   Partly Cloudy
2:00 PM 92 °F - 75 °F 49% 29.76 in 7 mi ENE 4.5 mph - -   Haze
2:00 PM 91.4 °F 102.5 °F 75.2 °F 59% 29.77 in 6.2 mi ENE 4.6 mph - N/A   Partly Cloudy
3:00 PM 89.6 °F 99.8 °F 75.2 °F 62% 29.77 in 6.2 mi ENE 6.9 mph - N/A   Partly Cloudy
4:00 PM 89.6 °F 99.8 °F 75.2 °F 62% 29.77 in 6.2 mi ENE 2.3 mph - N/A   Partly Cloudy
5:00 PM 88 °F - 74 °F 56% 29.77 in 7 mi ENE 2.2 mph - -   Scattered Clouds
5:00 PM 87.8 °F 97.6 °F 75.2 °F 66% 29.80 in 6.2 mi ENE 2.3 mph - N/A   Scattered Clouds
6:00 PM 84.2 °F 92.3 °F 75.2 °F 74% 29.80 in 6.2 mi ENE 2.3 mph - N/A   Partly Cloudy
8:00 PM 82 °F - 75 °F 74% 29.81 in 6 mi Calm Calm - -   Haze
8:00 PM 82.4 °F 89.5 °F 75.2 °F 79% 29.83 in 6.2 mi Calm Calm - N/A   Scattered Clouds
11:00 PM 80 °F - 73 °F 73% 29.82 in 6 mi Calm Calm - -   Haze
11:00 PM 78.8 °F - 73.4 °F 83% 29.83 in 6.2 mi Calm Calm - N/A   Mostly Cloudy